Location: Auttagershofen
(48.1940°N, 10.0237°E)
Time: 23:48:42
(UTC+00:00)

Cosmos 2082 Rocket - Pass Details

Date: 18 January 2026
Orbit: 831 x 853 km, 71.0° (Epoch: 16 February)

Event Time Altitude Azimuth Distance (km) Brightness Sun altitude
Exits shadow 05:53:52 12° 313° (NW) 2,334 3.9 -11.4°
Maximum altitude 05:58:21 31° 255° (WSW) 1,440 3.0 -10.7°
Drops below altitude 10° 06:03:17 10° 195° (SSW) 2,470 4.7 -9.9°
Sets 06:05:57 0° 185° (S) 3,404 5.6 -9.5°
